Volver al catálogo

COSMOS 1720

ActivoMilitarLEO
NORAD 16453·PAYLOAD·🇷🇺 Russia

Lanzado Jan 9, 1986 desde Plesetsk Cosmodrome

Loading…

Próximos Pases (próximas 24 horas)

TLE

ActualizadoSource: Space-Track

Época: Sep 14, 2026, 23:35 UTC

1 16453U 86002E   26257.98265773  .00000006  00000-0  14158-3 0  9992
2 16453  73.9889 143.8739 0027682 155.5047 217.0222 12.50636970857355

Sigue COSMOS 1720 en tiempo real con AllMySat

Download on the App Store